Change the Weather History Date:

Sunday, January 15, 2012

  Actual Average Record
Temperature  
Mean Temperature 20 °F -  
Max Temperature 24 °F 37 °F 58 °F (1981)
Min Temperature 14 °F 29 °F 0 °F (1971)
Degree Days  
Heating Degree Days 46    
Moisture  
Dew Point -1 °F    
Average Humidity 43    
Maximum Humidity 68    
Minimum Humidity 30    
Precipitation  
Precipitation 0.00 in - - ()
Sea Level Pressure  
Sea Level Pressure 30.42 in    
Wind  
Wind Speed 6 mph (NE)    
Max Wind Speed 15 mph    
Max Gust Speed 29 mph    
Visibility 10 miles    
Events      
Averages and records for this station are not official NWS values.
T = Trace of Precipitation, MM = Missing Value Source: NWS Daily Summary

Daily Weather History Graph

Daily Weather History Graph

Search for Another Location

Airport or City:

Trip Planner

Search our weather history database for the weather conditions in past years. The results will help you decide how hot, cold, wet, or windy it might be!

Date:

Astronomy

Jan. 15, 2012 Rise Set
Actual Time 8:29 AM AKST 3:53 PM AKST
Civil Twilight 7:42 AM AKST 4:39 PM AKST
Nautical Twilight 6:53 AM AKST 5:28 PM AKST
Astronomical Twilight 6:07 AM AKST 6:14 PM AKST
Moon No Moon Rise 10:11 AM AKST (1/15)
Length of Visible Light 8h 56m
Length of Day
7h 23m
Waning Gibbous, 56% of the Moon is Illuminated
Jan 15
Waning Gibbous
Jan 16
Last Quarter
Jan 22
New
Jan 30
First Quarter
Feb 7
Full

Hourly Weather History & Observations

Time (AKST) Temp. Windchill Dew Point Humidity Pressure Visibility Wind Dir Wind Speed Gust Speed Precip Events Conditions
12:53 AM 21.0 °F 14.6 °F 6.1 °F 53% 30.34 in 10.0 mi NE 4.6 mph - N/A   Clear
1:53 AM 24.1 °F 19.7 °F 8.1 °F 51% 30.35 in 10.0 mi WSW 3.5 mph - N/A   Clear
3:53 AM 19.9 °F 14.9 °F 10.9 °F 68% 30.38 in 10.0 mi NE 3.5 mph - N/A   Clear
4:53 AM 21.0 °F 16.2 °F 9.0 °F 60% 30.38 in 10.0 mi Variable 3.5 mph - N/A   Clear
5:53 AM 19.0 °F 11.1 °F 6.1 °F 57% 30.39 in 10.0 mi ENE 5.8 mph - N/A   Clear
6:53 AM 19.0 °F 11.1 °F 7.0 °F 59% 30.39 in 10.0 mi ENE 5.8 mph - N/A   Clear
7:53 AM 21.9 °F - 1.9 °F 42% 30.40 in 10.0 mi Calm Calm - N/A   Clear
8:53 AM 18.0 °F 11.1 °F 9.0 °F 68% 30.41 in 10.0 mi East 4.6 mph - N/A   Clear
9:53 AM 19.9 °F 14.9 °F 8.1 °F 60% 30.43 in 10.0 mi ENE 3.5 mph - N/A   Clear
10:53 AM 23.0 °F 17.0 °F -0.0 °F 37% 30.44 in 10.0 mi Variable 4.6 mph - N/A   Clear
11:53 AM 24.1 °F 12.5 °F -0.9 °F 34% 30.44 in 10.0 mi North 12.7 mph 28.8 mph N/A   Clear
12:53 PM 23.0 °F 13.9 °F -2.0 °F 34% 30.43 in 10.0 mi NE 8.1 mph 18.4 mph N/A   Clear
1:53 PM 23.0 °F 17.0 °F -4.0 °F 31% 30.43 in 10.0 mi ENE 4.6 mph - N/A   Clear
2:53 PM 21.9 °F - -5.1 °F 30% 30.43 in 10.0 mi Calm Calm - N/A   Clear
3:53 PM 19.9 °F 10.1 °F -5.1 °F 33% 30.44 in 10.0 mi NNE 8.1 mph - N/A   Clear
4:53 PM 19.0 °F 5.0 °F -8.0 °F 30% 30.45 in 10.0 mi NNE 15.0 mph 23.0 mph N/A   Clear
5:53 PM 18.0 °F 7.7 °F -6.0 °F 35% 30.46 in 10.0 mi NE 8.1 mph - N/A   Clear
6:53 PM 18.0 °F 5.4 °F -6.0 °F 35% 30.45 in 10.0 mi North 11.5 mph 16.1 mph N/A   Clear
7:53 PM 18.0 °F 4.2 °F -9.0 °F 30% 30.46 in 10.0 mi NE 13.8 mph 19.6 mph N/A   Clear
8:53 PM 16.0 °F 4.4 °F -8.0 °F 34% 30.46 in 10.0 mi NE 9.2 mph - N/A   Clear
9:53 PM 15.1 °F 6.4 °F -8.0 °F 36% 30.47 in 10.0 mi Variable 5.8 mph - N/A   Clear
10:53 PM 15.1 °F 1.8 °F -9.0 °F 34% 30.47 in 10.0 mi North 11.5 mph 17.3 mph N/A   Clear
11:53 PM 14.0 °F 2.9 °F -9.0 °F 35% 30.46 in 10.0 mi North 8.1 mph - N/A   Clear